Wind_Speed
59 63 65 68 68 65 66 71 72 65 65 68 66 64 68 67 69 65 63 62 59 56 54 53 53 48 47 41 41 43 40 38 37 40 37 32 31 29 24 22 23 21 20
70 71 70 71 74 74 74 75 76 73 71 71 70 64 70 71 74 74 73 66 67 67 63 60 60 58 57 54 47 48 47 44 41 43 40 38 35 34 31 27 27 26 24
77 79 80 82 80 79 79 78 79 79 78 71 71 71 69 77 77 80 75 76 76 71 72 69 67 65 65 64 61 59 55 52 51 48 51 45 44 40 38 38 34 31 29
78 82 82 81 79 79 80 79 79 78 76 75 74 76 74 76 84 84 84 84 82 79 78 79 75 74 72 73 72 68 65 60 58 55 54 56 52 50 45 43 41 39 38
87 87 85 85 82 78 74 69 72 77 75 79 84 81 76 74 75 90 89 87 87 89 87 89 83 84 79 82 79 75 74 71 65 62 60 61 60 60 51 49 47 43 43
87 85 84 84 84 85 88 88 85 85 87 88 87 85 85 81 83 81 82 84 94 98 93 93 92 90 92 89 87 84 81 78 76 75 68 65 64 66 63 57 54 52 49
81 80 80 79 79 80 82 86 88 90 92 91 93 94 94 91 90 92 87 87 87 91 94 99 106 104 98 99 102 98 90 90 87 83 79 75 72 72 70 65 58 55 53
85 84 83 81 80 80 81 82 82 83 86 91 94 101 104 102 101 100 101 98 92 92 95 97 99 102 106 111 111 106 105 103 97 95 89 86 80 80 77 71 67 63 58
88 89 88 87 85 85 84 83 84 84 85 86 89 92 99 112 109 112 111 105 106 106 105 105 109 108 114 113 111 110 108 106 107 102 97 93 92 88 86 81 72 69 64
93 91 90 89 88 86 87 85 84 84 83 85 87 91 93 95 99 100 102 101 103 106 107 110 115 118 122 124 121 118 110 111 110 108 104 100 100 97 95 89 84 75 72
93 92 91 89 87 87 88 89 89 89 89 90 91 94 97 99 100 101 105 109 111 108 114 117 122 126 127 125 122 116 115 117 112 111 111 106 104 102 101 102 95 87 83
92 90 91 92 90 88 88 91 91 93 95 95 97 98 100 101 104 103 101 102 100 103 106 108 110 116 122 127 129 125 121 115 113 112 114 112 109 106 107 107 106 99 93
93 91 91 90 92 95 95 95 96 97 95 91 89 90 93 91 88 87 87 83 84 85 86 83 86 92 97 102 108 114 119 120 115 109 112 117 116 113 111 113 112 110 104
93 93 93 92 91 88 86 86 89 91 90 89 87 87 87 80 74 71 68 64 64 65 62 61 61 67 77 84 89 94 99 104 107 112 112 111 118 118 114 114 115 116 113
85 85 83 81 81 80 84 86 89 89 88 87 80 70 62 55 50 45 45 45 49 53 49 52 54 56 61 66 73 77 80 86 92 99 105 111 110 111 115 115 114 116 116
75 77 78 80 80 81 83 83 77 72 66 58 50 44 35 35 35 35 31 34 40 44 50 56 57 56 54 52 59 64 65 70 77 85 93 101 106 106 107 112 116 117 116
48 53 56 59 59 60 60 59 56 49 39 31 28 26 31 30 30 30 34 37 38 43 50 51 52 58 54 46 44 47 53 58 62 71 81 88 96 101 103 103 108 113 116
14 16 19 22 24 27 28 29 28 31 30 21 27 27 29 34 32 32 34 37 37 37 40 40 46 51 46 38 35 34 37 43 52 59 68 77 84 89 95 97 101 105 109
4 8 11 15 17 18 22 25 24 24 28 28 27 33 33 35 36 37 36 34 36 38 35 32 34 36 25 21 21 25 27 31 39 49 57 64 75 81 88 92 95 98 99
11 12 15 17 21 24 21 24 25 26 26 31 35 35 40 41 42 40 37 33 35 35 34 25 25 32 17 16 17 15 13 15 25 35 44 56 62 71 79 82 86 92 96
23 25 27 27 28 26 27 29 32 33 36 36 37 39 40 43 43 44 46 39 36 35 28 28 22 19 12 12 11 12 9 6 10 20 28 39 48 54 60 68 75 79 85
16 19 23 28 31 32 35 39 41 40 44 45 45 46 46 47 45 44 45 46 40 39 36 27 21 14 10 8 9 3 2 5 6 16 27 36 39 43 49 51 52 55 71
22 21 20 18 17 17 19 23 27 32 40 45 47 50 52 54 56 51 48 45 47 44 42 39 29 17 11 12 5 6 11 13 21 22 24 30 32 37 42 40 49 57 58
23 24 25 25 26 26 27 28 28 27 26 27 30 35 41 46 52 57 58 56 52 47 46 47 41 31 24 19 19 14 15 15 21 28 26 26 30 32 40 44 52 57 62
29 29 28 29 30 32 33 36 34 33 34 33 34 32 36 41 42 44 49 57 56 52 55 52 51 45 38 33 29 27 26 27 24 28 29 30 34 34 38 48 53 57 60
30 30 30 30 31 32 36 36 36 38 38 38 39 40 39 39 42 43 47 49 52 55 59 60 55 58 52 49 42 39 37 36 36 34 33 31 38 44 48 57 65 63 59
Wind_Direction
270 270 268 270 273 269 270 271 270 266 259 262 265 262 261 261 260 261 258 257 252 254 253 254 256 255 257 250 252 253 251 253 258 261 255 248 251 253 238 241 255 261 257
270 272 274 272 273 275 274 274 271 272 268 268 269 267 259 260 255 255 254 258 258 254 253 251 254 256 258 255 251 251 251 249 249 255 256 255 250 252 254 241 243 254 259
267 268 270 272 271 271 270 268 269 269 268 269 268 266 264 253 255 252 257 255 256 256 257 253 252 251 253 254 253 253 251 251 249 253 258 254 254 253 254 259 253 248 254
265 268 271 271 273 272 269 268 270 268 269 270 267 270 263 261 254 255 256 257 254 252 256 258 256 255 254 253 255 252 249 249 249 245 249 256 253 252 250 251 255 261 259
266 268 268 269 270 271 271 269 272 271 269 266 270 267 263 262 263 253 254 256 256 254 257 257 255 252 257 256 254 254 251 247 247 247 247 248 253 254 248 247 249 253 257
269 269 268 268 267 266 266 268 268 268 268 270 268 265 263 263 263 260 256 255 256 256 256 258 257 256 253 256 254 253 253 250 245 247 244 248 248 250 252 248 249 250 252
270 270 270 269 268 267 266 265 265 265 266 265 262 259 264 267 261 266 264 260 257 257 258 258 256 257 256 256 254 254 253 252 251 248 244 244 246 247 248 249 248 251 253
270 270 270 269 268 268 268 267 267 266 265 264 262 258 260 262 264 266 270 268 263 258 255 256 257 257 256 254 253 252 254 253 249 244 245 244 242 245 246 245 246 245 249
270 270 270 270 270 270 270 269 268 268 266 266 266 265 265 260 263 265 268 268 264 264 263 259 256 257 257 257 255 252 250 250 250 242 240 239 242 241 243 243 243 244 244
270 270 270 271 271 272 274 274 272 270 270 268 268 268 267 266 266 267 269 268 266 265 264 261 260 256 254 257 258 255 249 249 247 245 240 236 235 242 242 243 239 242 239
268 267 268 268 269 268 269 269 270 271 272 272 271 272 272 273 273 272 272 272 270 267 265 260 259 258 257 258 257 255 251 248 243 240 242 238 234 234 240 241 241 237 236
265 266 267 268 269 269 270 270 272 274 275 276 275 274 275 276 276 277 277 275 274 271 270 269 266 263 261 259 259 258 256 252 246 241 239 239 237 233 234 237 239 237 235
265 265 266 267 268 269 270 272 273 273 276 278 278 279 279 280 281 282 280 279 277 277 276 275 272 269 265 261 258 255 253 253 251 247 241 237 238 235 233 233 235 238 236
266 265 265 266 268 270 271 272 274 275 278 279 281 283 284 286 285 284 284 284 283 283 284 283 277 269 266 264 260 256 253 250 247 248 246 241 238 236 234 234 233 234 236
268 267 268 269 270 271 273 274 275 279 281 284 285 286 287 285 282 281 282 285 291 294 295 291 290 283 273 266 262 259 255 250 248 243 242 243 240 238 235 234 234 235 235
266 266 267 268 269 270 272 274 279 281 283 284 284 284 277 268 266 278 287 293 303 309 305 304 303 296 291 274 263 257 253 248 244 242 241 239 238 238 234 232 232 234 236
267 266 267 267 268 268 270 272 277 280 279 280 274 262 256 254 264 274 287 291 295 308 307 307 304 301 298 287 268 262 254 247 242 238 236 236 237 235 234 232 231 233 236
290 276 262 255 256 263 267 269 267 266 263 266 253 259 262 257 267 286 283 281 299 300 306 306 306 302 298 285 274 265 257 246 240 236 234 233 234 236 235 232 230 230 233
196 212 232 233 241 243 249 258 266 270 268 264 268 262 268 272 269 280 281 288 283 289 301 301 306 303 309 314 296 272 256 244 239 238 233 231 230 229 231 231 230 229 230
267 246 246 255 258 252 252 258 260 271 273 266 266 269 269 272 273 275 275 282 283 291 299 294 303 298 327 359 355 331 300 260 240 233 231 233 232 232 230 231 231 229 228
295 284 277 270 269 268 268 264 265 264 266 273 272 265 266 269 277 277 274 277 285 283 291 300 314 329 344 11 26 12 350 314 254 237 233 232 232 232 232 230 230 230 230
326 312 295 281 277 279 281 283 280 275 269 266 271 274 274 271 267 273 274 269 274 275 280 284 290 302 329 11 23 32 260 123 184 210 212 214 217 221 226 222 212 229 226
13 11 9 1 347 334 325 317 306 295 283 279 280 280 277 277 277 273 271 266 270 266 271 268 267 247 246 290 257 255 223 168 187 195 201 207 211 217 219 217 218 226 226
359 357 353 348 346 343 339 331 320 312 306 299 294 291 284 277 276 276 275 271 269 260 257 265 263 241 219 250 264 234 219 226 207 206 207 214 208 207 205 208 208 215 218
346 341 336 333 327 327 327 329 324 319 311 307 303 299 297 296 287 281 276 273 270 261 259 252 254 251 225 222 237 246 242 232 230 221 219 221 222 214 213 209 206 209 214
347 342 338 333 326 324 320 317 313 312 311 311 308 302 296 296 299 300 288 278 271 268 261 260 255 248 241 228 226 234 239 237 235 223 221 219 219 211 213 210 208 212 213
Height
10945 10946 10945 10945 10942 10942 10941 10939 10941 10941 10939 10939 10942 10944 10944 10944 10944 10945 10946 10948 10950 10951 10953 10953 10953 10955 10955 10955 10957 10958 10958 10960 10958 10955 10959 10959 10958 10959 10961 10962 10962 10962 10963
10929 10928 10926 10926 10925 10924 10924 10922 10920 10920 10920 10921 10920 10923 10926 10924 10924 10926 10926 10929 10932 10934 10934 10937 10937 10940 10941 10942 10944 10945 10947 10949 10950 10947 10949 10951 10951 10952 10952 10954 10955 10956 10957
10906 10906 10905 10905 10906 10906 10905 10904 10901 10900 10900 10904 10904 10904 10904 10904 10903 10905 10907 10910 10913 10915 10918 10919 10919 10922 10924 10925 10928 10931 10933 10935 10938 10939 10935 10939 10942 10943 10944 10945 10946 10948 10951
10887 10886 10884 10883 10885 10883 10885 10884 10881 10880 10880 10882 10883 10884 10883 10882 10883 10884 10889 10891 10893 10895 10898 10900 10901 10902 10904 10907 10910 10913 10915 10919 10922 10926 10926 10924 10927 10929 10935 10935 10936 10937 10939
10868 10867 10867 10866 10867 10865 10863 10862 10861 10860 10860 10859 10857 10859 10859 10858 10858 10862 10865 10868 10871 10873 10875 10876 10879 10882 10883 10886 10889 10892 10897 10901 10905 10910 10912 10912 10912 10913 10919 10924 10925 10927 10927
10843 10843 10843 10844 10845 10843 10842 10840 10840 10838 10836 10835 10833 10832 10833 10834 10837 10837 10839 10843 10847 10849 10851 10852 10855 10856 10857 10858 10862 10868 10872 10879 10885 10889 10894 10897 10897 10897 10900 10907 10914 10915 10915
10820 10819 10819 10820 10821 10820 10818 10816 10816 10816 10815 10813 10810 10807 10806 10808 10810 10810 10813 10817 10820 10822 10825 10829 10830 10830 10829 10831 10834 10838 10845 10851 10858 10863 10873 10877 10879 10876 10883 10890 10895 10901 10903
10795 10795 10796 10795 10794 10793 10793 10793 10793 10791 10788 10786 10785 10785 10782 10781 10781 10780 10783 10787 10789 10791 10791 10794 10796 10796 10793 10793 10799 10806 10813 10818 10824 10830 10843 10853 10858 10858 10862 10869 10876 10884 10889
10770 10769 10769 10769 10769 10769 10768 10767 10766 10765 10763 10764 10758 10758 10756 10756 10754 10751 10751 10753 10755 10755 10757 10758 10756 10759 10760 10756 10759 10770 10779 10786 10787 10796 10807 10819 10830 10836 10837 10848 10858 10862 10871
10741 10741 10742 10742 10742 10742 10741 10740 10737 10736 10737 10736 10732 10728 10727 10727 10724 10722 10716 10716 10716 10717 10723 10720 10713 10713 10714 10713 10716 10727 10742 10749 10751 10760 10774 10787 10798 10809 10815 10821 10834 10842 10848
10713 10713 10713 10714 10716 10716 10714 10711 10710 10708 10708 10708 10707 10701 10695 10694 10692 10689 10683 10676 10674 10685 10676 10675 10668 10661 10662 10666 10671 10683 10696 10703 10714 10726 10737 10750 10764 10780 10786 10791 10802 10813 10822
10684 10686 10687 10687 10688 10688 10688 10686 10683 10680 10679 10677 10675 10671 10667 10662 10658 10654 10647 10638 10640 10632 10627 10622 10621 10619 10620 10624 10628 10639 10649 10660 10673 10689 10702 10714 10727 10743 10753 10761 10770 10785 10794
10657 10659 10660 10660 10660 10662 10661 10660 10654 10650 10650 10647 10648 10645 10638 10633 10628 10622 10612 10609 10603 10597 10594 10593 10585 10578 10574 10577 10581 10588 10601 10616 10633 10650 10666 10678 10688 10702 10716 10728 10739 10750 10764
10629 10631 10631 10632 10634 10636 10636 10633 10630 10626 10626 10625 10620 10616 10611 10606 10599 10592 10588 10584 10578 10572 10568 10560 10554 10550 10542 10540 10541 10546 10557 10572 10590 10609 10624 10639 10652 10668 10684 10697 10709 10718 10734
10601 10602 10604 10609 10610 10613 10610 10609 10605 10604 10604 10601 10596 10591 10590 10585 10579 10576 10574 10570 10562 10554 10548 10538 10531 10522 10516 10513 10511 10513 10523 10537 10551 10564 10580 10596 10614 10631 10652 10665 10679 10691 10704
10572 10575 10578 10583 10586 10588 10586 10584 10586 10583 10581 10580 10578 10576 10573 10572 10570 10566 10561 10557 10551 10543 10533 10522 10511 10500 10492 10488 10487 10487 10494 10503 10514 10529 10544 10557 10574 10592 10609 10628 10645 10660 10676
10551 10554 10559 10563 10566 10567 10567 10567 10569 10569 10567 10566 10566 10565 10564 10563 10560 10557 10552 10548 10542 10534 10523 10512 10501 10485 10476 10471 10468 10468 10471 10478 10489 10500 10511 10524 10539 10556 10576 10597 10615 10633 10647
10541 10543 10546 10549 10551 10554 10555 10556 10556 10556 10556 10557 10556 10555 10555 10553 10550 10548 10544 10539 10534 10526 10516 10506 10492 10479 10468 10460 10456 10453 10456 10461 10469 10478 10489 10502 10514 10531 10547 10566 10584 10602 10618
10542 10543 10544 10545 10546 10548 10549 10550 10551 10550 10549 10547 10547 10546 10544 10542 10541 10539 10536 10532 10527 10521 10514 10503 10490 10475 10463 10455 10450 10446 10446 10449 10457 10465 10473 10484 10493 10505 10515 10530 10549 10570 10591
10545 10544 10544 10544 10543 10543 10542 10542 10542 10541 10539 10537 10537 10535 10533 10531 10528 10526 10525 10523 10519 10513 10508 10497 10487 10474 10460 10452 10447 10444 10444 10445 10448 10454 10461 10469 10481 10491 10500 10515 10530 10546 10561
10545 10543 10541 10539 10538 10537 10536 10534 10532 10530 10527 10525 10523 10523 10521 10519 10517 10513 10511 10510 10507 10505 10500 10494 10483 10472 10463 10454 10450 10449 10446 10445 10447 10451 10457 10464 10472 10478 10490 10501 10510 10522 10537
10539 10536 10533 10532 10531 10529 10528 10525 10522 10520 10517 10515 10511 10508 10506 10505 10505 10502 10498 10497 10497 10495 10494 10487 10481 10474 10467 10459 10454 10452 10450 10447 10449 10447 10449 10451 10458 10468 10479 10488 10498 10498 10514
10539 10535 10532 10530 10527 10523 10520 10516 10512 10509 10506 10503 10500 10496 10494 10490 10486 10485 10484 10482 10481 10481 10479 10479 10475 10470 10465 10462 10455 10453 10452 10445 10448 10449 10449 10452 10458 10462 10472 10483 10489 10493 10502
10541 10536 10532 10528 10523 10519 10515 10511 10506 10502 10497 10492 10488 10482 10479 10477 10472 10467 10465 10466 10464 10463 10464 10463 10463 10463 10459 10457 10455 10451 10450 10450 10448 10448 10449 10451 10454 10456 10462 10467 10471 10476 10485
10540 10535 10530 10525 10520 10515 10509 10503 10498 10493 10487 10482 10478 10475 10468 10460 10458 10454 10450 10446 10444 10446 10444 10445 10448 10450 10449 10447 10446 10446 10445 10443 10442 10442 10444 10445 10446 10450 10454 10459 10461 10465 10471
10537 10531 10526 10521 10515 10508 10502 10496 10490 10484 10478 10472 10466 10459 10456 10449 10442 10437 10432 10429 10426 10425 10425 10423 10426 10430 10433 10433 10432 10433 10434 10434 10434 10434 10435 10436 10437 10440 10443 10446 10449 10452 10459